GW1083 Weather Reports


time (UTC)temp
C
wind
direction
speed
KPH
gust
KPH
rain 1hr
cm
rain 24hr
cm
rain mn
cm
humidity
%
barometer
mb
20260504050752 8 235 0.0 321.9 0.00 0.00 0.00 79 818.2
20260504050251 8 214 0.0 321.9 0.00 0.00 0.00 78 806.7
20260504045750 8 211 0.0 321.9 0.00 0.00 0.00 78 823.5
20260504045249 8 241 0.0 321.9 0.00 0.00 0.00 77 858.8
20260504044748 8 233 0.0 321.9 0.00 0.00 0.00 76 855.2
20260504043731 8 242 0.0 321.9 0.00 0.00 0.00 76 873.6
20260504042724 8 243 0.0 321.9 0.00 0.00 0.00 76 872.6
20260504042223 8 233 0.0 321.9 0.00 0.00 0.00 76 858.6
20260504041722 8 247 0.0 321.9 0.00 0.00 0.00 75 854.2
20260504041221 8 226 0.0 321.9 0.00 0.00 0.00 75 838.6
20260504040719 8 227 0.0 321.9 0.00 0.00 0.00 74 850.5
20260504040218 8 238 0.0 321.9 0.00 0.00 0.00 74 859.3
20260504035717 8 238 0.0 321.9 0.00 0.00 0.00 72 857.2
20260504034155 8 236 0.0 321.9 0.00 0.00 0.00 71 854.3
20260504033148 9 236 0.0 321.9 0.00 0.00 0.00 70 854.5
20260504031625 9 236 0.0 321.9 0.00 0.00 0.00 68 854.4
20260504025602 10 236 0.0 321.9 0.00 0.00 0.00 67 854.3
20260504025101 10 236 0.0 321.9 0.00 0.00 0.00 67 854.2
20260504024601 10 236 0.0 321.9 0.00 0.00 0.00 67 854.2
20260504023549 10 236 0.0 321.9 0.00 0.00 0.00 65 854.3
20260504023048 10 236 0.0 321.9 0.00 0.00 0.00 64 854.4
20260504022547 10 236 0.0 321.9 0.00 0.00 0.00 63 854.4
20260504022046 10 236 0.0 321.9 0.00 0.00 0.00 63 854.1
20260504021545 10 236 0.0 321.9 0.00 0.00 0.00 63 854.3
20260504021044 10 236 0.0 321.9 0.00 0.00 0.00 61 854.3
20260504020543 11 236 0.0 321.9 0.00 0.00 0.00 59 854.2
20260504020042 11 236 0.0 321.9 0.00 0.00 0.00 58 854.2
20260504015542 11 236 0.0 321.9 0.00 0.00 0.00 57 854.1
20260504014527 11 236 0.0 321.9 0.00 0.00 0.00 57 853.8
20260504014026 11 236 0.0 321.9 0.00 0.00 0.00 56 853.6
20260504013525 11 236 0.0 321.9 0.00 0.00 0.00 54 853.8
20260504013024 11 236 0.0 321.9 0.00 0.00 0.00 52 853.9
20260504012523 12 236 0.0 321.9 0.00 0.00 0.00 53 854.0
20260504011517 12 236 0.0 321.9 0.00 0.00 0.00 52 854.0
20260504010501 12 236 0.0 321.9 0.00 0.00 0.00 50 855.2
20260504010000 12 236 0.0 321.9 0.00 0.00 0.00 48 855.9
20260504005500 12 236 0.0 321.9 0.00 0.00 0.00 48 857.7
20260504004959 13 236 0.0 321.9 0.00 0.00 0.00 47 860.9
20260504004458 13 236 0.0 321.9 0.00 0.00 0.00 47 866.8
20260504003451 13 248 0.0 321.9 0.00 0.00 0.00 45 890.8
20260504002950 13 248 0.0 321.9 0.00 0.00 0.00 44 890.2
20260504002449 14 248 0.0 321.9 0.00 0.00 0.00 43 889.9
20260504001948 14 248 0.0 321.9 0.00 0.00 0.00 42 889.8
20260504001447 15 248 0.0 321.9 0.00 0.00 0.00 41 889.2
20260504000431 15 248 0.0 321.9 0.00 0.00 0.00 39 886.0
20260503235929 15 248 0.0 321.9 0.00 0.00 0.00 38 882.4
20260503235428 15 247 0.0 321.9 0.00 0.00 0.00 38 875.7
20260503234927 16 245 0.0 321.9 0.00 0.00 0.00 37 862.5
20260503234426 16 236 0.0 321.9 0.00 0.00 0.00 36 855.2
20260503233409 16 218 0.0 321.9 0.00 0.00 0.00 34 795.4
20260503230834 16 244 0.0 321.9 0.00 0.00 0.00 33 834.0
20260503230333 16 236 0.0 321.9 0.00 0.00 0.00 33 808.1
20260503225832 16 216 0.0 321.9 0.00 0.00 0.00 32 802.8
20260503225331 16 231 0.0 321.9 0.00 0.00 0.00 32 801.0
20260503223759 17 240 0.0 321.9 0.00 0.00 0.00 32 848.5
20260503222236 17 238 0.0 321.9 0.00 0.00 0.00 32 797.8
20260503221735 17 249 0.0 321.9 0.00 0.00 0.00 32 824.9
20260503221234 17 232 0.0 321.9 0.00 0.00 0.00 31 859.0
20260503220733 17 241 0.0 321.9 0.00 0.00 0.00 31 844.4
20260503220232 17 217 0.0 321.9 0.00 0.00 0.00 32 828.8
20260503215731 17 266 0.0 321.9 0.00 0.00 0.00 31 873.1
20260503215230 17 278 0.0 321.9 0.00 0.00 0.00 30 864.4
20260503214213 16 296 0.0 321.9 0.00 0.00 0.00 31 835.3
20260503213713 16 208 0.0 321.9 0.00 0.00 0.00 31 795.3
20260503212707 17 235 0.0 321.9 0.00 0.00 0.00 29 836.3
20260503212206 17 236 0.0 321.9 0.00 0.00 0.00 29 827.4
20260503211706 17 242 0.0 321.9 0.00 0.00 0.00 30 808.2
20260503211205 17 192 0.0 321.9 0.00 0.00 0.00 30 794.9
20260503210702 17 276 0.0 321.9 0.00 0.00 0.00 29 830.0
20260503210202 17 233 0.0 321.9 0.00 0.00 0.00 30 805.3
20260503204631 17 128 0.0 321.9 0.00 0.00 0.00 29 736.5
20260503204131 17 232 0.0 321.9 0.00 0.00 0.00 32 778.0
20260503203631 17 102 0.0 321.9 0.00 0.00 0.00 31 699.3
20260503203131 17 327 0.0 321.9 0.00 0.00 0.00 34 753.6
20260503202630 17 198 0.0 321.9 0.00 0.00 0.00 31 773.8
20260503202130 17 248 0.0 321.9 0.00 0.00 0.00 31 813.7
20260503201113 17 194 0.0 321.9 0.00 0.00 0.00 33 792.4
20260503200613 17 232 0.0 321.9 0.00 0.00 0.00 30 792.2
20260503195607 17 210 0.0 321.9 0.00 0.00 0.00 31 788.6
20260503195107 17 242 0.0 321.9 0.00 0.00 0.00 31 803.6
20260503194607 17 13 0.0 321.9 0.00 0.00 0.00 31 750.0
20260503194108 17 241 0.0 321.9 0.00 0.00 0.00 32 830.7
20260503193607 17 217 0.0 321.9 0.00 0.00 0.00 32 817.5
20260503192551 17 223 0.0 321.9 0.00 0.00 0.00 33 818.3
20260503191536 17 223 0.0 321.9 0.00 0.00 0.00 34 786.8
20260503191035 17 275 0.0 321.9 0.00 0.00 0.00 34 758.2
20260503190029 16 257 0.0 321.9 0.00 0.00 0.00 36 810.1
20260503185527 16 228 0.0 321.9 0.00 0.00 0.00 33 805.6
20260503185026 17 142 0.0 321.9 0.00 0.00 0.00 33 780.9
20260503183513 16 205 0.0 321.9 0.00 0.00 0.00 32 800.5
20260503183012 16 238 0.0 321.9 0.00 0.00 0.00 33 865.5
20260503182512 16 275 0.0 321.9 0.00 0.00 0.00 36 867.1
20260503182010 16 218 0.0 321.9 0.00 0.00 0.00 33 783.4
20260503180953 16 242 0.0 321.9 0.00 0.00 0.00 33 816.7
20260503180451 16 227 0.0 321.9 0.00 0.00 0.00 33 791.5
20260503175950 16 262 0.0 321.9 0.00 0.00 0.00 30 753.9
20260503175449 16 137 0.0 321.9 0.00 0.00 0.00 32 762.4
20260503174948 15 201 0.0 321.9 0.00 0.00 0.00 34 793.0
20260503174447 15 207 0.0 321.9 0.00 0.00 0.00 32 782.0
20260503173946 16 187 0.0 321.9 0.00 0.00 0.00 33 764.5
20260503173445 16 248 0.0 321.9 0.00 0.00 0.00 34 853.9
20260503171923 15 198 0.0 321.9 0.00 0.00 0.00 33 753.3
20260503171421 15 209 0.0 321.9 0.00 0.00 0.00 35 800.0
20260503170921 15 152 0.0 321.9 0.00 0.00 0.00 32 793.4
20260503150810 12 203 0.0 321.9 0.00 0.00 0.00 42 721.5
20260503150311 11 17 0.0 321.9 0.00 0.00 0.00 41 649.5
20260503140236 10 201 0.0 321.9 0.00 0.00 0.00 48 727.7
20260503131125 8 241 0.0 321.9 0.00 0.00 0.00 53 792.6
20260503130624 8 71 0.0 321.9 0.00 0.00 0.00 52 759.4
20260503130122 8 277 0.0 321.9 0.00 0.00 0.00 54 785.7
20260503110517 6 232 0.0 321.9 0.00 0.00 0.00 65 817.2
20260503090408 6 227 0.0 321.9 0.00 0.00 0.00 67 829.8
20260503081334 7 234 0.0 321.9 0.00 0.00 0.00 67 812.3
20260503080834 7 234 0.0 321.9 0.00 0.00 0.00 67 830.0
20260503080334 7 239 0.0 321.9 0.00 0.00 0.00 67 858.6
20260503072823 7 272 0.0 321.9 0.00 0.00 0.00 65 846.4
20260503072323 7 221 0.0 321.9 0.00 0.00 0.00 65 803.9
20260503071823 7 222 0.0 321.9 0.00 0.00 0.00 65 824.6
20260503071323 7 215 0.0 321.9 0.00 0.00 0.00 65 833.2
20260503070822 7 229 0.0 321.9 0.00 0.00 0.00 64 831.2